Dewpoint
60 60 61 62 62 62 62 62 61 60 59 58 58 57 57 58 58 47 43 55 59 62 59 46 45 44 36 35 38 33 25 18 20 36 36 38 36 36 37 40 41 44 46 48 57
59 59 60 61 62 62 62 62 61 60 59 56 55 55 55 57 52 44 57 59 62 62 43 44 42 43 34 32 34 29 23 22 33 36 36 37 36 35 37 39 41 46 51 56 58
58 59 59 60 61 61 61 61 60 59 58 56 55 55 54 55 42 39 59 58 61 61 53 47 42 41 34 32 32 31 25 30 38 43 37 36 36 35 36 35 39 44 49 52 55
58 58 59 59 60 60 60 60 60 59 58 57 56 55 55 53 14 54 59 58 60 59 54 43 41 37 32 30 33 30 34 38 42 43 40 38 38 37 36 36 38 42 45 44 44
58 57 58 58 59 59 60 60 59 59 58 58 56 55 53 40 39 52 55 54 52 55 49 41 38 35 30 29 35 34 34 42 43 42 41 41 40 38 38 37 39 40 40 39 39
57 57 57 57 58 58 59 60 59 59 59 58 57 55 49 32 47 46 46 50 53 51 45 42 38 37 33 31 32 38 37 39 42 41 40 39 39 38 37 38 37 38 39 40 39
57 57 57 57 58 58 58 60 59 59 59 58 57 53 45 35 45 46 46 48 52 52 48 42 47 38 36 37 41 38 34 35 38 39 38 36 31 35 37 37 35 36 38 37 36
57 57 56 57 57 58 58 58 59 59 59 58 57 49 40 47 46 43 45 45 50 52 53 51 51 44 41 40 37 34 31 29 31 38 37 28 24 23 28 30 33 35 36 36 35
56 57 56 56 56 57 57 57 57 58 58 57 50 45 41 50 43 44 43 44 52 52 51 51 49 42 41 36 33 34 23 27 27 37 35 29 22 25 35 32 31 33 33 34 33
55 56 56 56 56 57 56 57 57 57 55 53 51 44 45 42 45 45 45 44 50 50 48 46 42 40 38 34 25 29 29 27 23 33 35 33 31 31 34 35 34 34 34 35 35
55 54 56 55 55 56 55 53 49 48 51 44 44 42 43 45 47 44 44 46 48 46 39 42 37 36 37 36 30 30 28 26 25 35 33 33 34 35 35 35 34 35 35 35 34
54 53 55 55 55 55 53 48 45 46 43 46 46 44 45 45 42 43 45 44 44 39 40 39 32 36 38 38 35 33 29 28 32 35 33 32 33 34 34 34 33 33 33 34 37
52 53 53 56 55 53 50 46 48 45 39 43 45 45 43 44 41 41 44 44 41 37 38 34 33 37 35 33 32 31 29 28 29 33 32 28 24 25 28 33 33 32 32 32 37
52 52 54 55 52 50 48 49 50 45 32 35 42 43 44 43 38 43 45 42 39 37 36 36 36 36 35 33 32 30 33 32 32 31 25 29 17 26 26 25 31 33 33 35 35
51 51 52 55 49 48 48 50 49 44 23 32 41 43 44 39 39 41 44 40 36 38 36 32 34 33 33 33 34 32 34 33 33 32 28 27 23 22 27 25 26 32 34 34 34
50 51 51 51 53 48 49 49 46 31 22 34 41 41 40 39 40 42 41 41 39 35 35 34 39 36 34 36 34 35 34 33 33 30 22 28 21 15 23 24 28 33 34 34 33
49 51 51 51 47 51 49 46 32 27 31 33 36 40 36 36 40 40 38 37 34 31 31 35 35 38 37 35 36 34 30 24 18 23 20 25 25 22 23 24 29 33 33 33 32
47 50 50 50 51 51 48 38 27 28 28 35 36 35 33 35 36 39 36 34 36 34 32 29 28 36 38 35 34 33 30 23 13 19 21 26 24 22 26 29 30 33 33 32 31
47 46 47 48 51 51 44 31 30 27 30 33 35 32 32 35 36 37 34 31 34 36 28 28 27 36 38 37 36 35 32 31 26 19 20 22 23 22 29 30 32 33 32 31 31
44 43 43 48 52 49 38 32 33 30 33 33 29 34 31 33 34 33 34 34 34 36 35 31 28 33 36 36 35 35 34 29 28 12 13 18 19 17 21 25 31 31 31 31 31
42 37 44 47 50 43 32 33 32 31 33 29 29 30 31 31 33 32 34 32 34 35 34 29 31 33 35 35 32 32 31 31 29 24 18 16 16 19 26 27 31 32 32 31 31
40 32 43 50 37 35 32 33 34 31 32 30 30 29 29 33 32 32 32 28 34 34 34 33 33 31 33 33 35 32 31 31 24 21 23 23 19 25 26 28 31 31 32 32 32
33 35 45 49 32 32 33 35 31 31 29 28 27 29 30 31 30 31 31 33 34 34 34 34 33 26 29 33 32 34 33 31 29 28 25 21 19 26 27 28 29 30 31 31 32
35 31 35 42 36 33 32 32 31 33 30 30 29 30 30 29 30 29 29 31 35 35 40 36 34 26 20 23 29 29 30 31 30 25 25 24 24 26 27 27 26 28 29 31 32
33 31 33 29 31 35 34 33 31 32 32 30 28 29 29 25 27 28 31 32 35 40 38 37 31 31 27 27 28 28 28 28 29 29 26 25 25 27 28 28 29 29 29 28 29
32 32 33 32 35 35 34 32 31 30 28 27 27 29 29 27 26 29 30 30 31 34 36 37 30 33 29 28 24 23 25 29 29 28 29 28 27 28 29 29 27 26 25 24 24
38 40 35 35 34 34 32 33 30 30 30 29 30 28 29 28 31 33 32 32 33 33 33 34 26 23 15 23 21 15 21 24 25 25 25 23 25 26 24 23 22 22 23 25 26
Lifted_Index
2 2 2 1 1 1 2 2 3 4 5 6 7 7 8 8 8 8 7 5 5 5 7 8 8 8 8 8 7 6 6 5 5 4 3 3 4 5 5 5 5 5 4 3 2
2 2 2 1 1 1 2 2 3 4 5 7 7 8 8 8 8 8 6 5 4 5 7 8 8 8 8 8 7 7 6 6 5 5 4 4 4 4 5 5 5 5 4 3 2
2 2 2 2 1 1 2 2 3 4 6 7 8 9 8 8 8 7 6 5 4 5 6 8 8 8 8 7 7 7 7 6 6 5 4 4 4 4 4 5 5 5 5 3 3
2 2 2 1 1 1 2 2 3 4 5 6 7 8 8 8 8 7 6 5 4 4 6 7 8 8 7 7 7 7 7 7 6 5 5 4 4 4 4 5 5 6 5 5 4
2 2 2 1 1 1 2 2 3 3 4 5 7 8 8 9 8 7 6 5 4 5 6 7 8 8 7 7 7 7 7 7 6 5 5 5 4 4 4 5 5 6 6 6 6
2 2 2 2 1 1 1 2 2 3 3 4 5 7 8 9 9 8 7 5 4 5 6 7 7 8 8 8 7 7 7 7 7 6 6 5 5 5 5 5 5 5 6 6 6
1 2 2 2 1 1 1 1 2 2 2 3 5 6 8 9 9 9 7 6 4 4 5 6 6 7 7 7 7 7 7 7 7 7 7 6 6 5 5 5 5 6 6 6 6
2 1 1 1 1 1 1 1 2 2 2 3 5 6 7 8 8 8 8 6 4 3 4 4 5 6 7 7 7 7 7 7 8 8 8 8 7 7 7 7 6 7 7 7 7
2 2 1 1 1 1 0 1 1 2 2 3 5 6 7 7 8 8 8 6 4 3 3 3 4 5 6 6 6 6 6 6 7 8 9 8 8 8 8 8 8 8 7 8 8
2 2 1 1 1 1 0 0 1 2 4 5 5 6 6 6 7 7 7 5 4 3 3 3 4 5 5 6 6 6 6 6 7 8 9 8 8 9 9 8 8 8 8 8 8
3 2 2 1 1 1 1 1 2 3 5 5 5 5 5 6 6 6 6 5 4 4 4 4 4 4 5 5 6 7 7 7 8 8 9 8 8 9 9 8 8 8 8 8 8
3 3 2 1 1 1 2 2 3 4 4 4 4 4 4 5 5 6 5 5 4 5 5 5 5 5 5 5 6 7 7 7 7 8 8 8 8 8 9 8 8 8 8 8 8
4 3 3 2 1 2 2 3 3 3 3 4 4 4 4 4 5 5 5 4 5 5 5 5 5 5 5 5 5 5 5 6 7 7 7 7 6 6 7 8 8 8 8 8 8
4 4 3 2 2 2 3 3 2 3 3 4 5 4 4 5 5 5 4 4 5 5 5 5 5 5 5 5 4 4 5 6 7 6 6 6 5 5 6 7 7 8 8 8 8
4 4 3 3 2 3 3 2 2 2 3 4 5 5 5 5 5 5 4 4 4 4 4 4 4 4 5 4 4 4 5 6 6 6 5 5 4 4 5 6 7 7 8 8 8
5 4 4 3 2 2 2 2 2 1 2 4 5 5 5 6 5 5 4 4 4 4 4 4 4 4 4 4 4 4 4 4 4 4 4 4 4 4 5 6 7 7 7 7 8
5 5 4 4 3 2 2 2 1 1 2 4 5 6 6 6 5 5 4 4 4 4 4 3 4 4 4 4 4 4 4 3 2 2 2 4 4 5 6 7 7 7 7 7 7
5 5 5 4 3 3 2 2 1 2 3 5 5 6 6 5 5 5 5 4 4 4 3 3 3 3 3 3 4 4 4 3 1 1 2 4 5 5 7 7 7 7 7 7 7
5 5 5 5 3 2 2 1 1 2 3 4 5 5 5 5 5 5 5 5 4 4 3 3 3 3 3 3 3 4 4 4 3 2 2 3 5 6 6 6 7 7 7 7 7
5 5 6 5 3 2 2 1 2 2 3 4 4 5 5 5 5 5 5 5 4 3 3 3 3 3 3 2 3 3 4 4 4 2 2 2 4 5 6 6 6 6 6 6 6
4 5 6 4 3 2 1 2 2 3 3 3 4 4 4 4 4 4 4 5 4 3 3 3 3 3 3 2 3 3 3 3 4 3 2 2 4 5 6 6 6 6 6 6 6
4 5 5 3 2 2 2 2 2 3 3 3 4 4 3 3 3 3 4 4 4 3 3 3 3 2 2 3 3 3 3 3 3 4 3 3 4 6 6 6 6 6 6 6 6
5 5 4 2 2 2 2 2 2 2 3 3 3 3 3 3 3 3 3 4 4 3 3 3 3 2 2 3 3 3 3 3 3 3 4 4 4 6 6 6 5 5 5 5 5
4 4 3 2 2 2 2 2 2 2 3 3 3 3 3 3 3 3 3 3 3 3 3 3 3 3 3 3 3 3 3 3 3 3 4 4 4 5 5 5 4 4 5 5 5
3 3 2 2 2 2 2 2 2 2 3 3 3 2 2 3 3 3 3 3 3 2 2 3 3 3 3 4 4 4 4 4 4 4 4 5 5 5 4 4 4 4 5 6 7
2 2 2 2 2 2 2 2 2 2 2 2 2 2 2 3 2 2 2 2 2 2 2 2 2 3 3 4 4 4 5 5 5 5 5 5 5 4 4 4 4 5 6 7 7
2 3 2 2 2 2 2 2 2 2 2 2 2 2 2 3 2 2 2 2 2 2 2 2 2 2 3 4 4 5 5 5 5 4 4 5 5 4 4 5 6 6 7 7 7